User: anonymous   Login
Location: Innerarity Island Observatory
(30.3139°N, 87.4867°W)
Time: 04:31:35
(UTC-05:00)
Language:

FO-29 - Orbit

View from above orbital plane
View from above orbital plane
View from above satellite
View from above satellite

Ground track
Ground track

The orbit data is extracted from the following two-line orbital elements,

1 24278U 96046B   17117.95625726 -.00000009 +00000-0 +24181-4 0  9997
2 24278 098.5711 007.8835 0351331 107.4956 256.4898 13.53075699021839
Epoch (UTC): 27 April 2017 22:57:00
Eccentricity: 0.0351331
inclination: 98.5711°
perigee height: 799 km
apogee height: 1322 km
right ascension of ascending node: 7.8835°
argument of perigee: 107.4956°
revolutions per day: 13.53075699
mean anomaly at epoch: 256.4898°
orbit number at epoch: 2183

The dashed part of the orbit path shows where the satellite is in the earth's shadow,  

DLR